Terminal Aerodrome Forecast
Issued by NWS Boston, MA

Home | Current Version | Previous Version | Text Only | Print | Product List | Glossary On
Versions: 1 2 3 4 5 6 7 8 9 10 11 12 13 14 15 16 17 18 19 20 21 22 23 24 25 26 27 28 29 30 31 32 33 34 35 36 37 38 39 40 41 42 43 44 45 46 47 48 49 50
000
FTUS41 KBOX 180531
TAFBOS
TAF
KBOS 180531Z 1806/1912 28013G21KT P6SM BKN050
     FM180800 28013G22KT P6SM BKN040
     FM181300 29016G26KT P6SM BKN040
     FM182000 30013G25KT P6SM BKN035
     FM190000 30011G22KT P6SM BKN035
     FM190200 30011G21KT P6SM SCT025=

USA.gov is the U.S. government's official web portal to all federal, state and local government web resources and services.